Regional Weather Roundup
Issued by NWS State College, PA

Home | Current Version | Previous Version | Text Only | Print | Product List | Glossary Off
Versions: 1 2 3 4 5 6 7 8 9 10 11 12 13 14 15 16 17 18 19 20 21 22 23 24 25 26 27 28 29 30 31 32 33 34 35 36 37 38 39 40 41 42 43 44 45 46 47 48 49 50

000
ASUS41 KCTP 251103
RWRCTP

REGIONAL WEATHER ROUNDUP
NATIONAL WEATHER SERVICE STATE COLLEGE PA
600 AM EST SUN JAN 25 2015

Note: "fair" indicates few or no clouds below 12,000 feet with no
significant weather and/or obstructions to visibility.

* = STATION THAT DOES NOT REPORT PRECIPITATION /E.G. RAIN...SNOW...ETC/
    THUNDER OR FOG.

PAZ002>004-007>009-013>016-020>023-029>032-251200-
WESTERN PENNSYLVANIA

CITY           SKY/WX    TMP DP  RH WIND       PRES   REMARKS
ERIE           CLOUDY    30  21  69 N6        29.77R
MEADVILLE      LGT SNOW  30  28  92 N9        29.71R FOG
FRANKLIN*      CLOUDY    32  28  86 W6        29.72R
NEW CASTLE     LGT SNOW  33  32  96 CALM      29.74S FOG
BEAVER COUNTY  NOT AVBL
BUTLER*        CLOUDY    34  30  86 SW9       29.74S
PITTSBURGH INT LGT SNOW  33  31  92 W6        29.73S FOG
PITTSBURGH     CLOUDY    33  28  81 SW9       29.73S FOG
INDIANA*       CLOUDY    32  32 100 W10       29.74S FOG
LATROBE        MIX PCPN  32  32 100 SW12      29.75S
WASHINGTON CO* CLOUDY    34  28  80 SW6       29.76R
$$

PAZ004>006-010>012-017>019-024>028-033>037-041-042-045-046-049>053-251200-
CENTRAL PENNSYLVANIA

CITY           SKY/WX    TMP DP  RH WIND       PRES   REMARKS
BRADFORD       CLOUDY    27  23  85 NW14      29.64R
DUBOIS         CLOUDY    31  30  96 W12       29.66R FOG
CLEARFIELD     CLOUDY    32  29  88 W9        29.66S
JOHNSTOWN      CLOUDY    30  28  92 W17       29.64R FOG
ALTOONA        CLOUDY    34  30  85 W10       29.68R
STATE COLLEGE  CLOUDY    30  30 100 W15       29.67R HAZE
WILLIAMSPORT   CLOUDY    35  29  78 W10       29.65R
SELINSGROVE    CLOUDY    38  29  70 W7        29.68R
FT INDIANTOWN  CLOUDY    35  28  75 SW6       29.68R
CAPITAL CITY   CLOUDY    37  28  70 W8        29.71R
HARRISBURG     CLOUDY    37  28  70 W7        29.70R
YORK           CLOUDY    37  27  67 W9        29.71R
$$

PAZ038>040-043-044-047-048-054-055-060>062-067>071-251200-
EASTERN PENNSYLVANIA

CITY           SKY/WX    TMP DP  RH WIND       PRES   REMARKS
SCRANTON       CLOUDY    33  25  72 SW10      29.60R
MOUNT POCONO   CLOUDY    29  24  82 W15G24    29.53S
ALLENTOWN      CLOUDY    35  27  72 SW12      29.64S
QUAKERTOWN*    NOT AVBL
READING        CLOUDY    36  27  69 VRB7      29.67R
LANCASTER      CLOUDY    35  27  72 W9        29.70R
COATESVILLE    CLOUDY    36  30  80 W6        29.70R
POTTSTOWN      CLOUDY    34  26  72 SW5       29.69R
BLUE BELL      MOCLDY    36  30  80 SW5       29.68R
DOYLESTOWN     PTCLDY    31  26  82 SW6       29.66R
WILLOW GROVE   NOT AVBL
NORTH PHILA    PTCLDY    35  25  66 SW8       29.71R
PHILADELPHIA   MOCLDY    35  27  72 SW14      29.72R
$$


USA.gov is the U.S. government's official web portal to all federal, state and local government web resources and services.